When you browse on this site, cookies collect data to enhance your experience and personalize the content and advertising you see.
Visit our Privacy Policy to learn more. By continuing to use the site, you agree to this use of cookies and data.
  • In Österreich
  • Länderverzeichnis
  • Für 7 Tage
  • Wassertemperatur
  • Satellitenkarten
  • Wetterkarte
  • News
  • Widgets
  • user-avatar
    Anmelden

    Stündliche Wetter Zastenok

    Heute, 23 Juli, Dienstag

    Zeit Temperatur Niederschläge Wind Luftdruck Luftfeuchtigkeit
    00:00 +14°C° 0 mm 3 m/S 750 mmHg 95%
    01:00 +14°C° 0 mm 3 m/S 750 mmHg 95%
    02:00 +14°C° 0 mm 3 m/S 750 mmHg 97%
    03:00 +13°C° 0 mm 3 m/S 749 mmHg 97%
    04:00 +12°C° 0 mm 3 m/S 749 mmHg 97%
    05:00 +12°C° 0 mm 4 m/S 749 mmHg 97%
    06:00 +13°C° 0 mm 4 m/S 749 mmHg 96%
    07:00 +13°C° 0 mm 4 m/S 749 mmHg 95%
    08:00 +14°C° 0 mm 4 m/S 749 mmHg 93%
    09:00 +15°C° 0 mm 4 m/S 749 mmHg 89%
    10:00 +17°C° 0 mm 4 m/S 749 mmHg 85%
    11:00 +18°C° 0 mm 4 m/S 749 mmHg 81%
    12:00 +18°C° 0.1 mm 4 m/S 749 mmHg 79%
    13:00 +19°C° 0.1 mm 5 m/S 749 mmHg 77%
    14:00 +20°C° 0.1 mm 5 m/S 748 mmHg 75%
    15:00 +20°C° 0 mm 4 m/S 748 mmHg 76%
    16:00 +20°C° 0 mm 3 m/S 748 mmHg 76%
    17:00 +20°C° 0 mm 3 m/S 748 mmHg 77%
    18:00 +20°C° 0.2 mm 3 m/S 748 mmHg 81%
    19:00 +19°C° 0.2 mm 3 m/S 748 mmHg 85%
    20:00 +18°C° 0.2 mm 3 m/S 748 mmHg 90%
    21:00 +18°C° 0.1 mm 3 m/S 748 mmHg 91%
    22:00 +17°C° 0.1 mm 3 m/S 748 mmHg 93%
    23:00 +16°C° 0.1 mm 3 m/S 748 mmHg 95%

    Morgen, 24 Juli, Mittwoch

    Zeit Temperatur Niederschläge Wind Luftdruck Luftfeuchtigkeit
    00:00 +16°C° 0 mm 3 m/S 748 mmHg 95%
    01:00 +16°C° 0 mm 3 m/S 748 mmHg 96%
    02:00 +14°C° 0 mm 3 m/S 748 mmHg 97%
    03:00 +14°C° 0 mm 3 m/S 748 mmHg 97%
    04:00 +14°C° 0 mm 3 m/S 748 mmHg 97%
    05:00 +14°C° 0 mm 3 m/S 748 mmHg 97%
    06:00 +16°C° 0 mm 3 m/S 748 mmHg 94%
    07:00 +18°C° 0 mm 3 m/S 748 mmHg 91%
    08:00 +19°C° 0 mm 3 m/S 748 mmHg 87%
    09:00 +21°C° 0.1 mm 3 m/S 748 mmHg 78%
    10:00 +22°C° 0.1 mm 4 m/S 748 mmHg 70%
    11:00 +25°C° 0.1 mm 4 m/S 748 mmHg 61%
    12:00 +25°C° 0.1 mm 4 m/S 748 mmHg 60%
    13:00 +26°C° 0.1 mm 4 m/S 748 mmHg 58%
    14:00 +26°C° 0.1 mm 4 m/S 748 mmHg 57%
    15:00 +26°C° 0 mm 3 m/S 748 mmHg 59%
    16:00 +26°C° 0 mm 3 m/S 748 mmHg 61%
    17:00 +26°C° 0 mm 3 m/S 748 mmHg 62%
    18:00 +24°C° 0.1 mm 2 m/S 748 mmHg 69%
    19:00 +21°C° 0.1 mm 2 m/S 748 mmHg 75%
    20:00 +19°C° 0.1 mm 2 m/S 749 mmHg 81%
    21:00 +18°C° 0 mm 2 m/S 749 mmHg 84%
    22:00 +17°C° 0 mm 2 m/S 749 mmHg 87%
    23:00 +16°C° 0 mm 2 m/S 749 mmHg 91%

    übermorgen, 25 Juli, Donnerstag

    Zeit Temperatur Niederschläge Wind Luftdruck Luftfeuchtigkeit
    00:00 +16°C° 0 mm 2 m/S 749 mmHg 91%
    01:00 +15°C° 0 mm 2 m/S 749 mmHg 91%
    02:00 +15°C° 0 mm 2 m/S 749 mmHg 91%
    03:00 +15°C° 0 mm 2 m/S 750 mmHg 91%
    04:00 +15°C° 0 mm 2 m/S 750 mmHg 91%
    05:00 +14°C° 0 mm 2 m/S 750 mmHg 90%
    06:00 +16°C° 0 mm 2 m/S 750 mmHg 85%
    07:00 +18°C° 0 mm 2 m/S 750 mmHg 80%
    08:00 +20°C° 0 mm 2 m/S 750 mmHg 75%
    09:00 +21°C° 0.1 mm 2 m/S 750 mmHg 71%
    10:00 +22°C° 0.1 mm 3 m/S 750 mmHg 67%
    11:00 +25°C° 0.1 mm 3 m/S 750 mmHg 63%
    12:00 +25°C° 0.7 mm 3 m/S 749 mmHg 64%
    13:00 +25°C° 0.7 mm 3 m/S 749 mmHg 65%
    14:00 +25°C° 0.7 mm 4 m/S 749 mmHg 67%
    15:00 +24°C° 0.8 mm 3 m/S 748 mmHg 70%
    16:00 +24°C° 0.8 mm 3 m/S 748 mmHg 74%
    17:00 +22°C° 0.8 mm 3 m/S 748 mmHg 78%
    18:00 +21°C° 0.4 mm 3 m/S 748 mmHg 82%
    19:00 +20°C° 0.4 mm 2 m/S 747 mmHg 86%
    20:00 +19°C° 0.4 mm 2 m/S 747 mmHg 90%
    21:00 +18°C° 0 mm 2 m/S 747 mmHg 91%
    22:00 +17°C° 0 mm 2 m/S 747 mmHg 93%
    23:00 +16°C° 0 mm 2 m/S 747 mmHg 95%

    26 Juli, Freitag

    Zeit Temperatur Niederschläge Wind Luftdruck Luftfeuchtigkeit
    00:00 +16°C° 0 mm 2 m/S 747 mmHg 95%
    01:00 +15°C° 0 mm 2 m/S 747 mmHg 96%
    02:00 +15°C° 0 mm 2 m/S 747 mmHg 97%
    03:00 +14°C° 0 mm 2 m/S 747 mmHg 97%
    04:00 +14°C° 0 mm 2 m/S 747 mmHg 97%
    05:00 +14°C° 0 mm 2 m/S 747 mmHg 97%
    06:00 +14°C° 0 mm 3 m/S 747 mmHg 95%
    07:00 +16°C° 0 mm 3 m/S 747 mmHg 93%
    08:00 +17°C° 0 mm 3 m/S 747 mmHg 90%
    09:00 +18°C° 0.1 mm 3 m/S 747 mmHg 87%
    10:00 +19°C° 0.1 mm 4 m/S 747 mmHg 85%
    11:00 +19°C° 0.1 mm 4 m/S 747 mmHg 82%
    12:00 +20°C° 0 mm 4 m/S 747 mmHg 78%
    13:00 +21°C° 0 mm 4 m/S 747 mmHg 74%
    14:00 +23°C° 0 mm 4 m/S 746 mmHg 71%
    15:00 +22°C° 0.5 mm 4 m/S 746 mmHg 75%
    16:00 +22°C° 0.5 mm 4 m/S 746 mmHg 79%
    17:00 +21°C° 0.5 mm 5 m/S 746 mmHg 83%
    18:00 +20°C° 0.6 mm 4 m/S 746 mmHg 86%
    19:00 +20°C° 0.6 mm 4 m/S 746 mmHg 88%
    20:00 +19°C° 0.6 mm 4 m/S 746 mmHg 91%
    21:00 +18°C° 0.3 mm 4 m/S 746 mmHg 93%
    22:00 +18°C° 0.3 mm 4 m/S 746 mmHg 95%
    23:00 +17°C° 0.3 mm 4 m/S 746 mmHg 97%

    27 Juli, Samstag

    Zeit Temperatur Niederschläge Wind Luftdruck Luftfeuchtigkeit
    00:00 +17°C° 0 mm 3 m/S 746 mmHg 97%
    01:00 +17°C° 0 mm 3 m/S 746 mmHg 98%
    02:00 +16°C° 0 mm 2 m/S 746 mmHg 98%
    03:00 +17°C° 0.2 mm 2 m/S 746 mmHg 98%
    04:00 +17°C° 0.2 mm 2 m/S 745 mmHg 98%
    05:00 +17°C° 0.2 mm 2 m/S 745 mmHg 98%
    06:00 +17°C° 0.4 mm 2 m/S 745 mmHg 98%
    07:00 +17°C° 0.4 mm 2 m/S 745 mmHg 98%
    08:00 +17°C° 0.4 mm 2 m/S 745 mmHg 98%
    09:00 +18°C° 0.3 mm 2 m/S 745 mmHg 95%
    10:00 +20°C° 0.3 mm 3 m/S 745 mmHg 92%
    11:00 +21°C° 0.3 mm 3 m/S 745 mmHg 88%
    12:00 +22°C° 1 mm 4 m/S 745 mmHg 87%
    13:00 +22°C° 1 mm 5 m/S 745 mmHg 85%
    14:00 +23°C° 1 mm 5 m/S 744 mmHg 84%
    15:00 +23°C° 0.8 mm 5 m/S 744 mmHg 85%
    16:00 +23°C° 0.8 mm 5 m/S 744 mmHg 86%
    17:00 +23°C° 0.8 mm 5 m/S 744 mmHg 87%
    18:00 +22°C° 0.5 mm 4 m/S 744 mmHg 89%
    19:00 +21°C° 0.5 mm 4 m/S 744 mmHg 91%
    20:00 +20°C° 0.5 mm 3 m/S 744 mmHg 94%
    21:00 +19°C° 0 mm 3 m/S 744 mmHg 95%
    22:00 +19°C° 0 mm 3 m/S 744 mmHg 96%
    23:00 +18°C° 0 mm 3 m/S 744 mmHg 97%

    28 Juli, Sonntag

    Zeit Temperatur Niederschläge Wind Luftdruck Luftfeuchtigkeit
    00:00 +18°C° 0 mm 3 m/S 744 mmHg 97%
    01:00 +17°C° 0 mm 3 m/S 744 mmHg 97%
    02:00 +17°C° 0 mm 2 m/S 744 mmHg 97%
    03:00 +17°C° 0 mm 3 m/S 744 mmHg 97%
    04:00 +17°C° 0 mm 3 m/S 744 mmHg 97%
    05:00 +17°C° 0 mm 3 m/S 744 mmHg 97%
    06:00 +18°C° 0 mm 3 m/S 744 mmHg 95%
    07:00 +20°C° 0 mm 3 m/S 745 mmHg 92%
    08:00 +21°C° 0 mm 3 m/S 745 mmHg 90%
    09:00 +22°C° 0.4 mm 4 m/S 745 mmHg 82%
    10:00 +25°C° 0.4 mm 4 m/S 745 mmHg 75%
    11:00 +27°C° 0.4 mm 5 m/S 745 mmHg 68%
    12:00 +27°C° 0.1 mm 5 m/S 744 mmHg 66%
    13:00 +28°C° 0.1 mm 4 m/S 744 mmHg 64%
    14:00 +28°C° 0.1 mm 4 m/S 744 mmHg 62%
    15:00 +28°C° 0.4 mm 4 m/S 744 mmHg 66%
    16:00 +27°C° 0.4 mm 4 m/S 744 mmHg 71%
    17:00 +27°C° 0.4 mm 3 m/S 744 mmHg 75%
    18:00 +25°C° 0.1 mm 3 m/S 744 mmHg 79%
    19:00 +24°C° 0.1 mm 3 m/S 744 mmHg 84%
    20:00 +21°C° 0.1 mm 3 m/S 744 mmHg 88%
    21:00 +20°C° 0 mm 3 m/S 744 mmHg 90%
    22:00 +19°C° 0 mm 3 m/S 744 mmHg 91%
    23:00 +18°C° 0 mm 3 m/S 745 mmHg 93%
    Mehr zeigen